VCP385 RKPC-RCTP

Flight info

Callsign VCP385
Flight time 1h 36m
Altitude 36000
Route PANSI2E PANSI Y711 MUGUS Y742 SALMI B576 BAKER BAKER1A
Aircraft B738/M-SDE2E3FGHIRWXY/LB1

Departure

Time 2026-05-07 08:11
Airport Jeju International Airport (RKPC)

Arrival

Time 2026-05-07 09:47
Airport Taiwan Taoyuan International Airport (RCTP)
Time Latitude Longitude Altitude Speed Heading
2026-05-07 07:52 33.50383 126.48483 93 ft 0 kts 148°
2026-05-07 08:05 33.50384 126.48482 93 ft 1 kts 148°
2026-05-07 08:06 33.50397 126.48472 92 ft 2 kts 148°
2026-05-07 08:06 33.50410 126.48463 92 ft 2 kts 148°
2026-05-07 08:06 33.50424 126.48456 91 ft 2 kts 179°
2026-05-07 08:06 33.50439 126.48459 91 ft 2 kts 205°
2026-05-07 08:07 33.50451 126.48470 90 ft 1 kts 233°
2026-05-07 08:07 33.50454 126.48476 90 ft 1 kts 241°
2026-05-07 08:07 33.50456 126.48479 90 ft 0 kts 238°
2026-05-07 08:08 33.50020 126.47282 89 ft 0 kts 238°
2026-05-07 08:09 33.49994 126.47233 88 ft 15 kts 236°
2026-05-07 08:09 33.49931 126.47107 87 ft 11 kts 239°
2026-05-07 08:09 33.49890 126.47026 86 ft 11 kts 238°
2026-05-07 08:09 33.49891 126.46943 84 ft 11 kts 302°
2026-05-07 08:10 33.49982 126.46893 78 ft 16 kts 17°
2026-05-07 08:10 33.50069 126.47004 75 ft 25 kts 58°
2026-05-07 08:10 33.50312 126.47475 85 ft 107 kts 58°
2026-05-07 08:10 33.50838 126.48500 100 ft 174 kts 59°
2026-05-07 08:11 33.51426 126.49704 1032 ft 169 kts 57°
2026-05-07 08:11 33.52076 126.50929 1677 ft 185 kts 56°
2026-05-07 08:11 33.52777 126.52251 2230 ft 195 kts 56°
2026-05-07 08:11 33.53509 126.53672 2730 ft 208 kts 56°
2026-05-07 08:12 33.54297 126.55204 3186 ft 226 kts 56°
2026-05-07 08:12 33.55141 126.56847 3745 ft 239 kts 57°
2026-05-07 08:12 33.56033 126.58598 4236 ft 257 kts 57°
2026-05-07 08:12 33.56877 126.60529 4902 ft 269 kts 72°
2026-05-07 08:13 33.56975 126.62788 5464 ft 284 kts 105°
2026-05-07 08:13 33.56029 126.64856 6183 ft 287 kts 137°
2026-05-07 08:13 33.54372 126.66115 6992 ft 283 kts 166°
2026-05-07 08:13 33.52462 126.66454 7820 ft 280 kts 185°
2026-05-07 08:14 33.50551 126.66131 8624 ft 279 kts 197°
2026-05-07 08:14 33.48677 126.65550 9432 ft 280 kts 199°
2026-05-07 08:14 33.46780 126.64917 10216 ft 283 kts 199°
2026-05-07 08:14 33.44855 126.64292 10694 ft 297 kts 199°
2026-05-07 08:15 33.42791 126.63653 11154 ft 312 kts 198°
2026-05-07 08:15 33.40644 126.63007 11577 ft 327 kts 199°
2026-05-07 08:15 33.38452 126.62139 11979 ft 337 kts 208°
2026-05-07 08:15 33.36498 126.60580 12561 ft 339 kts 223°
2026-05-07 08:16 33.34756 126.58665 13250 ft 341 kts 226°
2026-05-07 08:16 33.33081 126.56697 13938 ft 344 kts 227°
2026-05-07 08:16 33.31367 126.54691 14695 ft 345 kts 226°
2026-05-07 08:16 33.29621 126.52698 15428 ft 347 kts 226°
2026-05-07 08:17 33.27872 126.50742 16061 ft 350 kts 225°
2026-05-07 08:17 33.26070 126.48751 16764 ft 351 kts 225°
2026-05-07 08:17 33.24295 126.46800 17370 ft 354 kts 225°
2026-05-07 08:17 33.22472 126.44803 17959 ft 357 kts 225°
2026-05-07 08:18 33.20630 126.42787 18498 ft 361 kts 225°
2026-05-07 08:18 33.18787 126.40770 19061 ft 363 kts 225°
2026-05-07 08:18 33.16917 126.38724 19581 ft 367 kts 225°
2026-05-07 08:18 33.15038 126.36668 20113 ft 369 kts 225°
2026-05-07 08:19 33.13132 126.34584 20581 ft 374 kts 225°
2026-05-07 08:19 33.11211 126.32484 21104 ft 377 kts 225°
2026-05-07 08:19 33.09277 126.30373 21616 ft 379 kts 226°
2026-05-07 08:19 33.07341 126.28258 22031 ft 384 kts 225°
2026-05-07 08:20 33.05365 126.26102 22554 ft 385 kts 226°
2026-05-07 08:20 33.03373 126.23962 22981 ft 389 kts 224°
2026-05-07 08:20 33.01260 126.21917 23450 ft 394 kts 219°
2026-05-07 08:20 32.98898 126.20191 23913 ft 401 kts 211°
2026-05-07 08:21 32.96342 126.18791 24310 ft 408 kts 207°
2026-05-07 08:21 32.93693 126.17572 24806 ft 411 kts 205°
2026-05-07 08:21 32.90962 126.16416 25274 ft 414 kts 204°
2026-05-07 08:21 32.88266 126.15310 25700 ft 417 kts 204°
2026-05-07 08:22 32.85507 126.14176 26066 ft 422 kts 204°
2026-05-07 08:22 32.82732 126.13026 26486 ft 424 kts 204°
2026-05-07 08:22 32.79937 126.11861 26986 ft 425 kts 204°
2026-05-07 08:22 32.77125 126.10680 27373 ft 428 kts 204°
2026-05-07 08:23 32.74330 126.09499 27728 ft 431 kts 204°
2026-05-07 08:23 32.71507 126.08302 28122 ft 434 kts 204°
2026-05-07 08:23 32.68669 126.07096 28499 ft 436 kts 204°
2026-05-07 08:23 32.65774 126.05866 28759 ft 441 kts 204°
2026-05-07 08:24 32.62887 126.04637 29149 ft 443 kts 204°
2026-05-07 08:24 32.59971 126.03399 29572 ft 444 kts 204°
2026-05-07 08:24 32.57077 126.02170 29848 ft 448 kts 204°
2026-05-07 08:24 32.54105 126.00907 30221 ft 449 kts 204°
2026-05-07 08:25 32.51192 125.99673 30793 ft 446 kts 205°
2026-05-07 08:25 32.48300 125.98450 31311 ft 444 kts 205°
2026-05-07 08:25 32.45364 125.97208 31819 ft 442 kts 205°
2026-05-07 08:25 32.42491 125.95995 32301 ft 439 kts 205°
2026-05-07 08:26 32.36721 125.93556 33110 ft 438 kts 206°
2026-05-07 08:26 32.33844 125.92338 33436 ft 439 kts 206°
2026-05-07 08:26 32.30947 125.91110 33717 ft 441 kts 206°
2026-05-07 08:27 32.28037 125.89879 34107 ft 441 kts 206°
2026-05-07 08:27 32.25188 125.88679 34620 ft 438 kts 206°
2026-05-07 08:27 32.22312 125.87470 35105 ft 435 kts 206°
2026-05-07 08:27 32.19497 125.86285 35545 ft 432 kts 206°
2026-05-07 08:28 32.16653 125.85089 35918 ft 431 kts 206°
2026-05-07 08:28 32.13799 125.83886 35925 ft 435 kts 207°
2026-05-07 08:28 32.08057 125.81462 35926 ft 444 kts 206°
2026-05-07 08:29 32.02232 125.79015 35923 ft 441 kts 206°
2026-05-07 08:29 31.96435 125.76582 35922 ft 445 kts 206°
2026-05-07 08:30 31.90635 125.74146 35922 ft 444 kts 206°
2026-05-07 08:30 31.84789 125.71693 35924 ft 444 kts 206°
2026-05-07 08:31 31.78971 125.69252 35926 ft 445 kts 206°
2026-05-07 08:31 31.73149 125.66816 35925 ft 443 kts 206°
2026-05-07 08:32 31.67317 125.64375 35925 ft 444 kts 206°
2026-05-07 08:32 31.61533 125.61956 35924 ft 444 kts 206°
2026-05-07 08:33 31.55671 125.59504 35926 ft 446 kts 206°
2026-05-07 08:33 31.49834 125.57066 35925 ft 445 kts 206°
2026-05-07 08:34 31.44003 125.54627 35925 ft 443 kts 206°
2026-05-07 08:34 31.38179 125.52187 35921 ft 444 kts 206°
2026-05-07 08:35 31.32359 125.49750 35923 ft 444 kts 206°
2026-05-07 08:35 31.26526 125.47317 35926 ft 444 kts 207°
2026-05-07 08:36 31.20676 125.44881 35922 ft 444 kts 206°
2026-05-07 08:36 31.14850 125.42456 35924 ft 445 kts 206°
2026-05-07 08:37 31.09036 125.40041 35922 ft 442 kts 206°
2026-05-07 08:37 31.03173 125.37608 35923 ft 445 kts 207°
2026-05-07 08:38 30.97307 125.35175 35923 ft 448 kts 207°
2026-05-07 08:38 30.91391 125.32725 35922 ft 449 kts 206°
2026-05-07 08:39 30.85528 125.30306 35926 ft 445 kts 206°
2026-05-07 08:39 30.79652 125.27877 35924 ft 449 kts 207°
2026-05-07 08:40 30.73753 125.25442 35923 ft 450 kts 207°
2026-05-07 08:40 30.67861 125.23019 35922 ft 446 kts 207°
2026-05-07 08:41 30.61993 125.20606 35925 ft 450 kts 206°
2026-05-07 08:41 30.56093 125.18184 35930 ft 450 kts 207°
2026-05-07 08:42 30.50187 125.15761 35928 ft 451 kts 207°
2026-05-07 08:42 30.44271 125.13335 35926 ft 451 kts 207°
2026-05-07 08:43 30.38305 125.10892 35936 ft 453 kts 207°
2026-05-07 08:43 30.32387 125.08478 35942 ft 449 kts 207°
2026-05-07 08:44 30.26464 125.06058 35934 ft 449 kts 207°
2026-05-07 08:44 30.20531 125.03636 35935 ft 452 kts 207°
2026-05-07 08:45 30.14631 125.01235 35944 ft 450 kts 207°
2026-05-07 08:45 30.08676 124.98814 35939 ft 449 kts 208°
2026-05-07 08:46 30.02801 124.96426 35939 ft 454 kts 208°
2026-05-07 08:46 29.96847 124.93986 35933 ft 452 kts 208°
2026-05-07 08:47 29.90970 124.91483 35927 ft 450 kts 208°
2026-05-07 08:47 29.85065 124.88943 35926 ft 450 kts 208°
2026-05-07 08:48 29.79179 124.86411 35924 ft 453 kts 208°
2026-05-07 08:48 29.73282 124.83890 35926 ft 453 kts 208°
2026-05-07 08:49 29.67375 124.81379 35926 ft 450 kts 208°
2026-05-07 08:49 29.61481 124.78876 35926 ft 450 kts 208°
2026-05-07 08:50 29.55618 124.76392 35927 ft 452 kts 208°
2026-05-07 08:50 29.49679 124.73876 35922 ft 452 kts 208°
2026-05-07 08:51 29.43779 124.71378 35921 ft 452 kts 208°
2026-05-07 08:51 29.37861 124.68877 35922 ft 452 kts 208°
2026-05-07 08:52 29.31941 124.66380 35925 ft 452 kts 208°
2026-05-07 08:52 29.26009 124.63879 35922 ft 453 kts 208°
2026-05-07 08:53 29.20095 124.61390 35923 ft 455 kts 208°
2026-05-07 08:53 29.14147 124.58890 35923 ft 455 kts 208°
2026-05-07 08:54 29.08200 124.56396 35924 ft 456 kts 208°
2026-05-07 08:54 29.02265 124.53907 35918 ft 455 kts 208°
2026-05-07 08:55 28.96398 124.51223 35913 ft 450 kts 214°
2026-05-07 08:55 28.91049 124.47701 35915 ft 442 kts 221°
2026-05-07 08:56 28.85955 124.43683 35913 ft 444 kts 223°
2026-05-07 08:56 28.80970 124.39629 35911 ft 434 kts 224°
2026-05-07 08:57 28.75997 124.35579 35912 ft 442 kts 223°
2026-05-07 08:57 28.70988 124.31529 35911 ft 442 kts 223°
2026-05-07 08:58 28.65963 124.27498 35910 ft 438 kts 222°
2026-05-07 08:58 28.60985 124.23518 35910 ft 441 kts 223°
2026-05-07 08:59 28.55937 124.19483 35907 ft 442 kts 222°
2026-05-07 08:59 28.50923 124.15488 35907 ft 442 kts 223°
2026-05-07 09:00 28.45912 124.11498 35908 ft 440 kts 223°
2026-05-07 09:00 28.40883 124.07494 35907 ft 443 kts 223°
2026-05-07 09:01 28.35826 124.03475 35906 ft 443 kts 223°
2026-05-07 09:01 28.30788 123.99477 35905 ft 439 kts 223°
2026-05-07 09:02 28.25798 123.95444 35909 ft 445 kts 223°
2026-05-07 09:02 28.20798 123.91362 35915 ft 439 kts 224°
2026-05-07 09:03 28.15867 123.87341 35923 ft 439 kts 223°
2026-05-07 09:03 28.10883 123.83279 35921 ft 442 kts 223°
2026-05-07 09:04 28.05921 123.79256 35919 ft 436 kts 224°
2026-05-07 09:04 28.00946 123.75218 35919 ft 442 kts 223°
2026-05-07 09:05 27.95939 123.71166 35919 ft 436 kts 224°
2026-05-07 09:05 27.91028 123.67193 35918 ft 438 kts 224°
2026-05-07 09:06 27.86065 123.63145 35915 ft 439 kts 224°
2026-05-07 09:06 27.81093 123.59098 35909 ft 443 kts 224°
2026-05-07 09:07 27.76130 123.55066 35903 ft 439 kts 224°
2026-05-07 09:07 27.71167 123.51035 35903 ft 443 kts 224°
2026-05-07 09:08 27.66170 123.46978 35901 ft 445 kts 223°
2026-05-07 09:08 27.61147 123.42908 35897 ft 443 kts 223°
2026-05-07 09:09 27.56098 123.38825 35898 ft 444 kts 223°
2026-05-07 09:09 27.51090 123.34787 35899 ft 440 kts 223°
2026-05-07 09:10 27.46088 123.30750 35895 ft 446 kts 223°
2026-05-07 09:10 27.41037 123.26681 35896 ft 446 kts 223°
2026-05-07 09:11 27.35975 123.22609 35892 ft 446 kts 223°
2026-05-07 09:11 27.30911 123.18542 35900 ft 446 kts 223°
2026-05-07 09:12 27.25877 123.14505 35903 ft 446 kts 223°
2026-05-07 09:12 27.20814 123.10448 35903 ft 444 kts 223°
2026-05-07 09:13 27.15739 123.06380 35900 ft 449 kts 223°
2026-05-07 09:13 27.10643 123.02306 35900 ft 448 kts 223°
2026-05-07 09:14 27.05557 122.98248 35905 ft 448 kts 223°
2026-05-07 09:14 27.00477 122.94206 35905 ft 452 kts 223°
2026-05-07 09:15 26.95361 122.90142 35905 ft 448 kts 223°
2026-05-07 09:15 26.90275 122.86104 35905 ft 450 kts 223°
2026-05-07 09:16 26.85146 122.82034 35904 ft 451 kts 223°
2026-05-07 09:16 26.80011 122.77967 35904 ft 448 kts 223°
2026-05-07 09:17 26.74907 122.73925 35905 ft 452 kts 223°
2026-05-07 09:17 26.69752 122.69849 35904 ft 449 kts 222°
2026-05-07 09:18 26.64632 122.65804 35904 ft 452 kts 222°
2026-05-07 09:18 26.59510 122.61764 35904 ft 449 kts 223°
2026-05-07 09:19 26.54387 122.57724 35904 ft 451 kts 223°
2026-05-07 09:19 26.49259 122.53683 35904 ft 449 kts 223°
2026-05-07 09:20 26.44109 122.49630 35904 ft 453 kts 222°
2026-05-07 09:20 26.38932 122.45564 35904 ft 451 kts 222°
2026-05-07 09:21 26.33778 122.41519 35904 ft 452 kts 223°
2026-05-07 09:21 26.28631 122.37483 35905 ft 453 kts 222°
2026-05-07 09:22 26.23483 122.33450 35905 ft 452 kts 222°
2026-05-07 09:22 26.18307 122.29400 35904 ft 455 kts 221°
2026-05-07 09:23 26.13135 122.25362 35858 ft 450 kts 221°
2026-05-07 09:23 26.10541 122.23356 35502 ft 444 kts 221°
2026-05-07 09:23 26.08016 122.21423 34998 ft 439 kts 220°
2026-05-07 09:24 26.05542 122.19534 34362 ft 437 kts 220°
2026-05-07 09:24 26.03037 122.17621 33650 ft 436 kts 220°
2026-05-07 09:24 26.00525 122.15702 32899 ft 436 kts 219°
2026-05-07 09:24 25.98047 122.13808 32288 ft 433 kts 219°
2026-05-07 09:25 25.95590 122.11935 31882 ft 426 kts 219°
2026-05-07 09:25 25.93161 122.10084 31398 ft 421 kts 219°
2026-05-07 09:25 25.90753 122.08247 30898 ft 417 kts 219°
2026-05-07 09:25 25.88379 122.06436 30392 ft 413 kts 219°
2026-05-07 09:26 25.86000 122.04622 29887 ft 408 kts 219°
2026-05-07 09:26 25.83697 122.02866 29390 ft 404 kts 219°
2026-05-07 09:26 25.81389 122.01108 28895 ft 400 kts 219°
2026-05-07 09:26 25.79096 121.99361 28393 ft 396 kts 218°
2026-05-07 09:27 25.76859 121.97658 27903 ft 392 kts 219°
2026-05-07 09:27 25.74600 121.95937 27406 ft 388 kts 219°
2026-05-07 09:27 25.70128 121.92519 26425 ft 395 kts 218°
2026-05-07 09:28 25.67888 121.90785 25924 ft 391 kts 219°
2026-05-07 09:28 25.65793 121.88898 25433 ft 384 kts 226°
2026-05-07 09:28 25.64008 121.86764 24947 ft 377 kts 234°
2026-05-07 09:28 25.62495 121.84435 24468 ft 371 kts 239°
2026-05-07 09:29 25.61155 121.82031 23987 ft 367 kts 242°
2026-05-07 09:29 25.59885 121.79574 23501 ft 364 kts 242°
2026-05-07 09:29 25.58652 121.77125 23022 ft 364 kts 243°
2026-05-07 09:29 25.57426 121.74680 22540 ft 369 kts 243°
2026-05-07 09:30 25.56188 121.72227 22059 ft 368 kts 242°
2026-05-07 09:30 25.54930 121.69747 21568 ft 364 kts 242°
2026-05-07 09:30 25.53700 121.67338 21080 ft 362 kts 242°
2026-05-07 09:30 25.52464 121.64923 20592 ft 359 kts 242°
2026-05-07 09:31 25.51243 121.62544 20104 ft 356 kts 242°
2026-05-07 09:31 25.50020 121.60171 19612 ft 353 kts 241°
2026-05-07 09:31 25.48755 121.57865 19140 ft 350 kts 238°
2026-05-07 09:31 25.47314 121.55700 18648 ft 348 kts 233°
2026-05-07 09:32 25.45767 121.53651 18164 ft 346 kts 231°
2026-05-07 09:32 25.44191 121.51665 17675 ft 343 kts 230°
2026-05-07 09:32 25.42604 121.49688 17197 ft 340 kts 231°
2026-05-07 09:32 25.41048 121.47739 16708 ft 337 kts 231°
2026-05-07 09:33 25.39505 121.45789 16252 ft 334 kts 231°
2026-05-07 09:33 25.38005 121.43881 15797 ft 332 kts 231°
2026-05-07 09:33 25.36501 121.41961 15330 ft 329 kts 231°
2026-05-07 09:33 25.35004 121.40047 14851 ft 327 kts 231°
2026-05-07 09:34 25.33536 121.38170 14405 ft 324 kts 232°
2026-05-07 09:34 25.32072 121.36301 13952 ft 322 kts 232°
2026-05-07 09:34 25.30598 121.34419 13499 ft 319 kts 231°
2026-05-07 09:34 25.29159 121.32582 13041 ft 317 kts 231°
2026-05-07 09:35 25.27713 121.30732 12643 ft 318 kts 231°
2026-05-07 09:35 25.26271 121.28886 12256 ft 321 kts 231°
2026-05-07 09:35 25.24812 121.27023 11813 ft 319 kts 231°
2026-05-07 09:35 25.23372 121.25188 11368 ft 317 kts 231°
2026-05-07 09:36 25.21934 121.23357 10926 ft 314 kts 231°
2026-05-07 09:36 25.20507 121.21540 10506 ft 311 kts 230°
2026-05-07 09:36 25.19109 121.19762 10282 ft 301 kts 230°
2026-05-07 09:36 25.17758 121.18044 10190 ft 288 kts 230°
2026-05-07 09:37 25.16477 121.16416 10067 ft 277 kts 230°
2026-05-07 09:37 25.15229 121.14829 9720 ft 274 kts 230°
2026-05-07 09:37 25.13981 121.13240 9403 ft 270 kts 230°
2026-05-07 09:37 25.12757 121.11683 9144 ft 265 kts 230°
2026-05-07 09:38 25.11557 121.10157 8797 ft 264 kts 230°
2026-05-07 09:38 25.10354 121.08627 8449 ft 262 kts 230°
2026-05-07 09:38 25.09167 121.07117 8135 ft 260 kts 230°
2026-05-07 09:38 25.07980 121.05608 7786 ft 259 kts 230°
2026-05-07 09:39 25.06794 121.04102 7454 ft 258 kts 229°
2026-05-07 09:39 25.05629 121.02628 7112 ft 256 kts 229°
2026-05-07 09:39 25.04461 121.01149 6786 ft 254 kts 229°
2026-05-07 09:39 25.03318 120.99697 6464 ft 251 kts 229°
2026-05-07 09:40 25.02177 120.98246 6151 ft 249 kts 229°
2026-05-07 09:40 25.01042 120.96809 5989 ft 240 kts 229°
2026-05-07 09:40 24.99960 120.95483 5922 ft 228 kts 224°
2026-05-07 09:40 24.98714 120.94483 5835 ft 219 kts 202°
2026-05-07 09:41 24.97205 120.94301 5750 ft 226 kts 172°
2026-05-07 09:41 24.95709 120.94933 5453 ft 235 kts 149°
2026-05-07 09:41 24.94511 120.96168 5186 ft 236 kts 131°
2026-05-07 09:41 24.93545 120.97610 4910 ft 233 kts 128°
2026-05-07 09:42 24.92631 120.99068 4630 ft 230 kts 124°
2026-05-07 09:42 24.91990 121.00648 4464 ft 224 kts 103°
2026-05-07 09:42 24.92137 121.02311 4308 ft 220 kts 65°
2026-05-07 09:42 24.93002 121.03671 4050 ft 218 kts 49°
2026-05-07 09:43 24.94021 121.04883 3904 ft 209 kts 48°
2026-05-07 09:43 24.94976 121.06056 3781 ft 204 kts 50°
2026-05-07 09:43 24.95906 121.07239 3433 ft 207 kts 50°
2026-05-07 09:43 24.96847 121.08430 3153 ft 203 kts 49°
2026-05-07 09:44 24.97748 121.09563 2892 ft 191 kts 49°
2026-05-07 09:44 24.98598 121.10635 2621 ft 178 kts 49°
2026-05-07 09:44 24.99401 121.11650 2402 ft 173 kts 50°
2026-05-07 09:44 25.00187 121.12641 2173 ft 172 kts 50°
2026-05-07 09:45 25.00967 121.13624 1948 ft 171 kts 49°
2026-05-07 09:45 25.01751 121.14616 1722 ft 169 kts 50°
2026-05-07 09:45 25.02509 121.15573 1503 ft 167 kts 49°
2026-05-07 09:45 25.03256 121.16517 1332 ft 157 kts 48°
2026-05-07 09:46 25.03956 121.17402 1069 ft 149 kts 48°
2026-05-07 09:46 25.04622 121.18242 909 ft 146 kts 48°
2026-05-07 09:46 25.05294 121.19090 716 ft 147 kts 48°
2026-05-07 09:46 25.05970 121.19948 529 ft 147 kts 47°
2026-05-07 09:47 25.06644 121.20795 341 ft 145 kts 47°
2026-05-07 09:47 25.07300 121.21617 179 ft 140 kts 46°
2026-05-07 09:47 25.07903 121.22377 116 ft 113 kts 49°
2026-05-07 09:47 25.08297 121.22877 116 ft 49 kts 49°
2026-05-07 09:48 25.08393 121.23032 116 ft 19 kts 65°
2026-05-07 09:48 25.08441 121.23199 116 ft 25 kts 81°
2026-05-07 09:48 25.08470 121.23375 116 ft 20 kts 79°
2026-05-07 09:48 25.08419 121.23492 116 ft 15 kts 155°
2026-05-07 09:49 25.08332 121.23559 116 ft 10 kts 139°
2026-05-07 09:49 25.08296 121.23592 116 ft 1 kts 139°
2026-05-07 09:49 25.08294 121.23594 116 ft 0 kts 139°